Location: Amherst
(42.3800°N, 72.5240°W)
Time: 12:11:27
(UTC-04:00)

ISS - Pass Details

Date: 22 May 2021
Orbit: 417 x 422 km, 51.6° (Epoch: 14 June)

Event Time Altitude Azimuth Distance (km) Brightness Sun altitude
Rises 23:58:19 0° 307° (NW) 2,369 0.8 -26.2°
Reaches altitude 10° 00:00:35 10° 318° (NW) 1,504 -0.2 -26.3°
Enters shadow 00:02:49 26° 355° (N) 858 -1.6 -26.4°
